Flag for Canada Weather past 2 weeks in Prince George, British Columbia, Canada

0 °F

Ice fog.

Feels Like: 0 °F
Forecast: 6 / 21 °F
Wind: No wind

Location: Prince George

Current Time: Nov 26, 2015 at 9:05:40 AM

Latest Report: Nov 26, 2015 at 8:00 AM

Visibility: 5 mi

Pressure: 30.76 "Hg (28.49 "Hg at 573m altitude)

Humidity: 84%

Dew point: -4 °F

Location of Prince GeorgeLocation

Historic Weather in Prince George — Graph


Prince George temperature yesterday

Maximum temperature yesterday: 18 °F (at 2:00 PM)
Minimum temperature yesterday: 0 °F (at 6:00 AM)
Average temperature yesterday: 7 °F

Past Weeks' High & Low Weather Summary

High43 °F (Nov 13, 12:00 PM)100% (Nov 12, 8:00 AM)30.76 "Hg (Nov 12, 8:00 AM)
Low0 °F (Nov 25, 6:00 AM)39% (Nov 11, 2:00 PM)29.32 "Hg (Nov 17, 12:00 PM)
Average25 °F77%30.03 "Hg
* Reported Nov 11 7:00 AM — Nov 26 7:55 AM, Prince George, Weather by CustomWeather, © 2015

Note: Actual official high and low records may vary slightly from our data, if they occured in-between our weather recording intervals... More about our weather records


Prince George weather history for previous 24 hours

Time TempWeatherWind HumidityBarometerVisibility
7:55 AM
Thu, Nov 26
0 °FIce fog.2 mph84%30.76 "Hg5 mi
7:00 AM0 °FSnow. Passing clouds.3 mph84%30.74 "Hg1 mi
6:47 AM0 °FLight snow. Passing clouds.No wind92%30.74 "Hg1 mi
6:00 AM1 °FIce fog.No wind92%30.74 "Hg0 mi
5:01 AM3 °FIce fog.2 mph92%30.72 "Hg1 mi
4:03 AM5 °FIce fog.No wind92%30.71 "Hg1 mi
4:02 AM5 °FIce fog.No wind92%30.71 "Hg1 mi
3:00 AM3 °FIce fog.2 mph92%30.70 "Hg5 mi
2:59 AM3 °FIce fog.2 mph92%30.70 "Hg5 mi
2:00 AM5 °FIce fog.No wind92%30.68 "Hg6 mi
1:51 AM5 °FPassing clouds.No wind92%30.68 "Hg7 mi
1:00 AM3 °FIce fog.No wind100%30.68 "Hg2 mi
12:59 AM3 °FIce fog.No wind92%30.68 "Hg4 mi
12:00 AM3 °FClear.2 mph78%30.68 "Hg9 mi
11:00 PM
Wed, Nov 25
5 °FPassing clouds.3 mph100%30.68 "Hg9 mi
10:00 PM3 °FClear.No wind92%30.68 "Hg9 mi
9:00 PM3 °FClear.No wind85%30.68 "Hg9 mi
8:00 PM5 °FClear.No wind92%30.68 "Hg9 mi
7:00 PM5 °FClear.No wind92%30.66 "Hg9 mi
6:00 PM9 °FClear.2 mph85%30.65 "Hg9 mi
5:00 PM12 °FClear.5 mph79%30.63 "Hg9 mi
4:00 PM14 °FClear.6 mph79%30.60 "Hg9 mi
3:00 PM18 °FSunny.2 mph68%30.61 "Hg9 mi
2:00 PM18 °FSunny.3 mph68%30.60 "Hg9 mi
1:00 PM16 °FSunny.3 mph73%30.61 "Hg9 mi
12:00 PM14 °FSunny.8 mph79%30.63 "Hg9 mi
11:00 AM10 °FSunny.6 mph85%30.64 "Hg9 mi
10:46 AM9 °FSunny.6 mph85%30.65 "Hg9 mi
10:00 AM7 °FSunny.6 mph92%30.66 "Hg9 mi
9:00 AM5 °FFrigid.2 mph85%30.66 "Hg9 mi
Weather by CustomWeather, © 2015

See weather overviewHow to use our weather pages